Regional Weather Roundup
Issued by NWS Midland/Odessa, TX

Skip options and go directly to product.
Home | Oldest Version | Previous Version | Current Version | All | Text Only | Save Text | Print | Product List | Glossary On

Skip product version selection by date and time.   
997
ASUS44 KMAF 220210
RWRMAF
MIDLAND AREA WEATHER ROUNDUP
NATIONAL WEATHER SERVICE MIDLAND TX
800 PM CST SUN DEC 21 2014

...IN SOUTHWEST TEXAS AND SOUTHEAST NEW MEXICO...

CITY           SKY/WX    TMP DP  RH WIND       PRES   REMARKS
ALPINE         PTCLDY    55  22  27 SW15      29.95R
ANDREWS        FAIR      58  28  31 W13       29.73R
ARTESIA        MOCLDY    55  27  33 W21G30    29.77S
BIG SPRING     CLOUDY    59  26  28 S12       29.72S
CARLSBAD       CLOUDY    61  26  26 W26G37    29.74F
DRYDEN           N/A     49  45  86 E6        29.82S
FORT STOCKTON  MOCLDY    57  25  29 W9        29.79F
GUAD PASS      NOT AVBL
HOBBS          CLOUDY    55  27  33 W18       29.75R
MARFA          MOCLDY    46  21  36 CALM      29.95S
MIDLAND AIRPK  CLOUDY    63  25  23 SW14      29.72S
MIDLAND INTL   CLOUDY    62  25  24 SW22      29.72F
ODESSA         CLOUDY    60  23  24 W17       29.74S
PECOS          MOCLDY    60  25  25 W14       29.78S
PRESIDIO       FAIR      55  28  35 CALM      29.90F
SEMINOLE       CLOUDY    56  27  32 W14       29.73S
SNYDER         CLOUDY    54  29  38 S7        29.68R
WINK           CLOUDY    61  22  22 W16       29.75R
$$
...OTHER STATIONS IN TEXAS...

CITY           SKY/WX    TMP DP  RH WIND       PRES   REMARKS
ABILENE        CLOUDY    55  41  59 S17       29.71F
AMARILLO       CLOUDY    44  26  49 S7        29.59S
AUSTIN         CLOUDY    55  52  89 S10       29.88R
BROWNSVILLE    CLOUDY    63  60  90 CALM      29.92F
CORPUS CHRISTI CLOUDY    60  56  86 E3        29.92F
DALLAS FTW     CLOUDY    51  46  83 S16       29.80F
DEL RIO        CLEAR     51  47  86 E8        29.86R
EL PASO        MOCLDY    59  26  28 W25       29.91R
HOUSTON INT    CLOUDY    55  51  86 SE10      29.92F
LUBBOCK        CLOUDY    57  27  31 W15       29.64S
SAN ANGELO     CLOUDY    53  44  71 SW13      29.76S
SAN ANTONIO    CLOUDY    55  51  86 S8        29.89F
WACO           CLOUDY    52  48  86 SE16G24   29.84F
WICHITA FALLS  NOT AVBL
$$
...OTHER LOCATIONS IN NEW MEXICO...

CITY           SKY/WX    TMP DP  RH WIND       PRES   REMARKS
ALAMAGORDO     PTCLDY    48  28  46 NE8       29.92S
ALBUQUERQUE    MOCLDY    45  29  53 CALM      29.94R
CANNON AFB     PTCLDY    52  27  38 W21G29    29.65F
CLOVIS         PTCLDY    52  27  37 W22G29    29.64S
HOLLOMAN AFB   PTCLDY    44  30  57 NE8       29.91R WCI  40
ROSWELL        PTCLDY    58  26  29 W13       29.75R
RUIDOSO        PTCLDY    46  25  42 NW12G38   29.90F
SANTA FE       PTCLDY    32  25  75 N7        29.91R WCI  26
TRUTH OR CONSE CLEAR     56  28  34 NW10      29.92R
TUCUMCARI      CLOUDY    53  26  35 W23       29.62R
$$

USA.gov is the U.S. government's official web portal to all federal, state and local government web resources and services.